Regional Weather Roundup
Issued by NWS

Home | Current Version | Previous Version | Graphics & Text | Print | Product List | Glossary On
Versions: 1 2 3 4 5 6 7 8 9 10 11 12 13 14 15 16 17 18 19 20 21 22 23 24 25 26 27 28 29 30 31 32 33 34 35 36 37 38 39 40 41 42 43 44 45 46 47 48 49 50
751
ASUS45 KBOU 221010
RWRCO

WEATHER ROUNDUP FOR COLORADO
NATIONAL WEATHER SERVICE PUEBLO CO
300 AM MST THU FEB 22 2018

NOTE: "FAIR" INDICATES FEW OR NO CLOUDS BELOW 12000 FEET WITH NO
SIGNIFICANT WEATHER AND/OR OBSTRUCTIONS TO VISIBILITY.

COZ001>005-013-030-031-221100-
...NORTHWEST COLORADO...

CITY           SKY/WX    TMP DP  RH WIND       PRES   REMARKS
CRAIG          CLOUDY    13   7  77 E3        29.99F
HAYDEN         LGT SNOW  11   8  88 NE6       29.98F FOG     WCI   1
MEEKER         LGT SNOW  20  16  84 CALM      29.95F FOG
RABBIT EARS PA NOT AVBL
STEAMBOAT SPGS CLOUDY    10   8  93 CALM      29.95F
WALDEN         FAIR       1  -4  78 SE8       29.92F WCI -12
$$

COZ006>008-011-221100-
...WEST CENTRAL VALLEYS...

CITY           SKY/WX    TMP DP  RH WIND       PRES   REMARKS
GRAND JUNCTION LGT SNOW  26  26 100 E5        30.00F FOG     WCI  20
MONTROSE       LGT SNOW  24  23  96 CALM      30.01F FOG
EAGLE          CLOUDY    19  13  77 SE5       29.98F WCI  12
RIFLE          LGT SNOW  24  22  91 E3        29.99F FOG
DELTA          NOT AVBL
NUCLA          FOG       27  25  93 CALM      30.01F VSB 1/2
$$

COZ017>023-064>068-221100-
...SOUTHWEST COLORADO...

CITY           SKY/WX    TMP DP  RH WIND       PRES   REMARKS
DURANGO        LGT SNOW  28  28 100 CALM      29.95S FOG
CORTEZ         CLOUDY    24  24 100 CALM      29.96F
PAGOSA SPRINGS NOT AVBL
TELLURIDE      LGT SNOW  21  19  91 CALM      29.90F
WOLF CREEK PAS CLOUDY    10   9  92 SW15G24   29.89F WCI  -6
$$

COZ009-010-012-014-032>034-037-058>063-221100-
...CENTRAL COLORADO...

CITY           SKY/WX    TMP DP  RH WIND       PRES   REMARKS
ASPEN          LGT SNOW  17  13  84 CALM      29.90F FOG
BUENA VISTA    LGT SNOW  18  15  88 CALM      29.92F
COPPER MTN     LGT SNOW  14   9  79 SE10      29.82F WCI   1
BERTHOUD PASS  CLOUDY     7  -4  61 S13       29.82F WCI  -9
COTTONWOOD PAS LGT SNOW  19  18  93 CALM      29.87F
GUNNISON       FLURRIES  19  14  81 CALM      29.92
KREMMLING      MOCLDY    12   5  73 CALM      29.96F
LEADVILLE      LGT SNOW  11   8  88 NE3       29.84F FOG
MONARCH PASS   SNOW      12  10  92 SW20      29.94F VSB 1/4 WCI  -6
SALIDA         CLOUDY    19  16  89 CALM      30.00F
SUNLIGHT       LGT SNOW  10   7  85 SW8       29.89F WCI  -1
WILKERSON PASS CLOUDY    14  10  85 SW12G21   29.86F WCI   0
$$

COZ069>075-221100-
...SAN LUIS VALLEY/SANGRE DE CRISTO MOUNTAINS...

CITY           SKY/WX    TMP DP  RH WIND       PRES   REMARKS
ALAMOSA        FAIR      23  20  88 S14       29.91F WCI  11
DEL NORTE      CLOUDY    21  20  96 CALM      29.92S
LA VETA PASS   CLOUDY    21  18  86 S21G31    30.00S WCI   6
SAGUACHE       NOT AVBL
$$

COZ035-036-038>040-221100-
...NORTHERN COLORADO FRONT RANGE...

CITY           SKY/WX    TMP DP  RH WIND       PRES   REMARKS
DENVER INTL AP MOCLDY    16   9  74 SW6       30.01F WCI   7
DMNS CITY PARK NOT AVBL
AURORA         CLOUDY    14  10  84 CALM      30.00F
FRONT RANGE AP CLOUDY    19  12  74 SW3       30.02F
ERIE MUNI ARPT FAIR       8   5  87 CALM      30.08F
BOULDER MUN AP FAIR      14  10  85 CALM      30.02F
CENTENNIAL     CLOUDY    15  11  83 CALM      29.98F
BROOMFIELD     NOT AVBL
LOVELAND       FAIR       7   4  87 N7        30.04F WCI  -5
LONGMONT       FAIR       9   5  85 CALM      30.06F
$$

COZ041-046-047-076>085-087-088-221100-
...PIKES PEAK/PALMER DIVIDE AND SOUTHERN FOOTHILLS...

CITY           SKY/WX    TMP DP  RH WIND       PRES   REMARKS
COLO. SPRINGS  CLOUDY    14  12  92 W5        30.00F WCI   6
A. F. ACADEMY  FLURRIES  12   9  87 CALM      29.97F
SCHRIEVER AFB  NOT AVBL
CHEYENNE MTN   NOT AVBL
ELLICOTT       CLOUDY   N/A N/A N/A W3        29.99
FALCON         CLOUDY    13  11  92 MISG      29.97F FOG
FORT CARSON    CLOUDY    15  12  87 CALM      30.00F
LIMON          CLOUDY    14  12  92 S7        30.04F WCI   4
MONUMENT HILL  MOCLDY     9   7  92 SW5       29.96F WCI   0
CANON CITY     MOCLDY    16  14  93 NE3       30.03F
WALSENBURG     FAIR      14  12  92 E6        30.00F WCI   5
TRINIDAD       FAIR      13  11  92 S6        30.02F WCI   4
$$

COZ042>045-048>051-090-091-221100-
...NORTHEAST COLORADO...

CITY           SKY/WX    TMP DP  RH WIND       PRES   REMARKS
GREELEY ARPT   FAIR       4   1  88 N6        30.06F WCI  -7
AKRON          CLOUDY    19  16  88 S10       30.07F WCI   7
BURLINGTON     CLOUDY    13   5  70 E8        30.12F WCI   2
WRAY           FAIR      19  10  68 E7        30.17F WCI  10
YUMA           NOT AVBL
STERLING       CLOUDY    23  19  86 SE8       30.10F WCI  14
HOLYOKE        MOCLDY    23  10  58 SE13      30.16F WCI  11
FORT MORGAN    PTSUNNY   16  12  85 E7        30.07F WCI   6
$$

COZ086-089-092>099-221100-
...SOUTHEAST COLORADO...

CITY           SKY/WX    TMP DP  RH WIND       PRES   REMARKS
PUEBLO         CLOUDY    20  15  81 VRB3      30.08F
LA JUNTA       FAIR      17  13  84 S5        30.12R WCI  10
LAMAR          MOCLDY    18   5  57 E6        30.14R WCI  10
SPRINGFIELD      N/A     14  11  87 S5        30.11F WCI   6
$$





USA.gov is the U.S. government's official web portal to all federal, state and local government web resources and services.